This demonstration page uses our WeatherBlox Daily Observations layout. Learn more.

Left ArrowRight Arrow

41.86663, -103.66717

Hourly Observations for September 11, 2018

Temp ( °F °C ) Dew Point ( °F °C ) Humidity (%) Winds ( mph kmh ) Pressure ( in mb ) Visibility ( mi km ) Precip ( " mm )
12:53 am 00:53 Clear 64 17.8 55 12.8 73 73 E 5 7 29.71 1006 10 16 N/A
1:53 am 01:53 Clear 65 18.3 51 10.6 61 61 N 6 9 29.69 1005 10 16 N/A
2:53 am 02:53 Clear 64 17.8 49 9.4 58 58 VRB 5 7 29.68 1005 10 16 N/A
3:53 am 03:53 Clear 60 15.6 51 10.6 72 72 ENE 6 9 29.70 1006 10 16 N/A
4:53 am 04:53 Clear 58 14.4 52 11.1 81 81 E 6 9 29.70 1006 10 16 N/A
5:53 am 05:53 Clear 55 12.8 52 11.1 90 90 undefined N/A 29.70 1006 10 16 N/A
6:53 am 06:53 Sunny 54 12.2 52 11.1 93 93 N N/A 29.74 1007 10 16 N/A
7:53 am 07:53 Sunny 60 15.6 54 12.2 80 80 N N/A 29.76 1008 10 16 N/A
8:53 am 08:53 Sunny 67 19.4 53 11.7 61 61 NNE 6 9 29.75 1008 10 16 N/A
9:53 am 09:53 Sunny 75 23.9 47 8.3 37 37 W 15 24 29.74 1007 10 16 N/A
10:53 am 10:53 Sunny 86 30 50 10 29 29 SSE 8 13 29.69 1006 10 16 N/A
11:53 am 11:53 Sunny 86 30 50 10 29 29 E 14 22 29.70 1006 10 16 N/A
12:53 pm 12:53 Mostly Sunny 89 31.7 45 7.2 22 22 ESE 12 19 29.69 1006 10 16 N/A
1:53 pm 13:53 Sunny 89 31.7 40 4.4 18 18 SW 21 33 29.71 1006 10 16 N/A
2:00 pm 14:00 Sunny 88 31 43 6 21 21 SSW 18 30 29.53 1000 10 16 N/A
2:53 pm 14:53 Sunny 88 31.1 44 6.7 22 22 S 14 22 29.72 1006 10 16 N/A
3:53 pm 15:53 Sunny 87 30.6 44 6.7 22 22 SE 9 15 29.69 1006 10 16 N/A
4:53 pm 16:53 Sunny 85 29.4 54 12.2 35 35 N N/A 29.69 1005 10 16 N/A
5:53 pm 17:53 Sunny 84 28.9 47 8.3 27 27 SSW 7 11 29.70 1006 10 16 N/A
6:53 pm 18:53 Sunny 82 27.8 47 8.3 29 29 SSW 5 7 29.70 1006 10 16 N/A
7:53 pm 19:53 Clear 73 22.8 51 10.6 46 46 undefined N/A 29.72 1006 10 16 N/A
8:53 pm 20:53 Mostly Clear 74 23.3 48 8.9 40 40 S 7 11 29.74 1007 10 16 N/A
9:53 pm 21:53 Clear 74 23.3 49 9.4 41 41 ESE 13 20 29.72 1006 10 16 N/A
10:53 pm 22:53 Clear with Light Rain 68 20 53 11.7 59 59 E 7 11 29.70 1006 10 16 N/A
11:53 pm 23:53 Clear 65 18.3 55 12.8 70 70 ESE 7 11 29.71 1006 10 16 N/A

Powered by AerisWeather